Weather Roundup
Issued by NWS Springfield, MO

Home | Current Version | Previous Version | Text Only | Print | Product List | Glossary On
Versions: 1 2 3 4 5 6 7 8 9 10 11 12 13 14 15 16 17 18 19 20 21 22 23 24 25 26 27 28 29 30 31 32 33 34 35 36 37 38 39 40 41 42 43 44 45 46 47 48 49 50
000
NZUS99 KSGF 170157
HRRSGF

HOURLY WEATHER
NATIONAL WEATHER SERVICE SPRINGFIELD MO
800 PM CST MON JAN 16 2017

......SGF CWA......

CITY           SKY/WX    TMP DP  RH WIND       PRES   REMARKS
SPRINGFIELD    CLOUDY    47  40  76 W22G30    29.95R
JOPLIN         CLOUDY    43  36  76 SW16G24   30.00R
ROLLA          CLOUDY    56  56 100 S13       29.85S
OSAGE BEACH    CLOUDY    55  52  88 W13G20    29.88R
BRANSON        CLEAR     54  45  71 W9        29.94R

......SURROUNDING SGF CWA......

CITY           SKY/WX    TMP DP  RH WIND       PRES   REMARKS
CHANUTE        CLOUDY    40  38  93 SW12      29.98R WCI  33
PARSONS        CLOUDY    41  38  89 SW12      30.01R
EMPORIA        CLOUDY    36  35  96 W8        29.96R WCI  30
HARRISON AR    CLEAR     54  46  74 CALM      29.95R

......KANSAS AND MISSOURI......

CITY           SKY/WX    TMP DP  RH WIND       PRES   REMARKS
KANSAS CTY INT CLOUDY    40  39  97 SW10      29.90R WCI  33
SEDALIA        CLOUDY    49  46  90 W12G21    29.90R
ST JOSEPH      CLOUDY    37  37 100 NW6       29.90R WCI  32
ST LOUIS       CLOUDY    56  53  90 SE9       29.88F FOG
WICHITA        CLOUDY    36  34  92 W9        29.99S WCI  29
TOPEKA         CLOUDY    38  34  85 W10       29.93R WCI  31
OLATHE         CLOUDY    40  39  97 SW9G21    29.91R WCI  34

......TENNESSEE......

CITY           SKY/WX    TMP DP  RH WIND       PRES   REMARKS
MEMPHIS        NOT AVBL
NASHVILLE      CLOUDY    66  51  58 S12       30.09F

......ARKANSAS.......

CITY           SKY/WX    TMP DP  RH WIND       PRES   REMARKS
FAYETTEVILLE   CLEAR     46  41  82 W8        30.01R
FT SMITH       CLEAR     53  43  68 W10       30.01R
LITTLE ROCK    CLOUDY    64  64 100 SW9       29.98R

......OKLAHOMA.......

CITY           SKY/WX    TMP DP  RH WIND       PRES   REMARKS
TULSA          CLOUDY    44  36  73 W12       30.04R
PONCA CITY     CLOUDY    40  34  79 W5        30.02S
MCALESTER      PTCLDY    48  38  68 NW6       30.04R
OKLAHOMA CITY  PTCLDY    39  33  79 NW10      30.06R WCI  32

......IOWA............

CITY           SKY/WX    TMP DP  RH WIND       PRES   REMARKS
DES MOINES     NOT AVBL
QUAD CITIES    CLOUDY    37  35  92 NE5       29.88F FOG     WCI  33

......ILLINOIS........

CITY           SKY/WX    TMP DP  RH WIND       PRES   REMARKS
QUINCY         FOG       45  45 100 SE8       29.83F VSB 1/4
CHICAGO        LGT RAIN  37  36  96 E8        29.96F VSB 1/2 WCI  31



USA.gov is the U.S. government's official web portal to all federal, state and local government web resources and services.